Regional Weather Roundup
Issued by NWS Pendleton, OR

Home | Current Version | Previous Version | Text Only | Print | Product List | Glossary On
Versions: 1 2 3 4 5 6 7 8 9 10 11 12 13 14 15 16 17 18 19 20 21 22 23 24 25 26 27 28 29 30 31 32 33 34 35 36 37 38 39 40 41 42 43 44 45 46 47 48 49 50
000
ASUS46 KPDT 251204
RWRPDT
PENDLETON REGIONAL WEATHER ROUNDUP
NATIONAL WEATHER SERVICE PENDLETON OREGON
500 AM PDT FRI JUL 25 2014

NOTE: FAIR INDICATES FEW OR NO CLOUDS BELOW 12,000 FEET WITH NO
SIGNIFICANT WEATHER AND/OR OBSTRUCTIONS TO VISIBILITY.

# INDICATES UNOFFICIAL STATION AND DATA

WAZ520-251310-
EAST SLOPES OF WASHINGTON CASCADES

CITY            SKY/WX      TMP DP  RH  WIND    PRES   REMARKS
#BULLFROG       N/A         53  46  77  W1      N/A
#BUMPING DAM    N/A         41  N/A N/A S3      N/A
#CLE ELUM HS    N/A         52  45  77  W6      30.07S
#CLE ELUM LAKE  N/A         48  44  86  N1      30.07S
#CLIFFDEL 2NW   N/A         46  42  86  CALM    N/A
#EASTON DOT     N/A         50  48  93  E1      N/A
#ELK HTS DOT    N/A         53  53  100 W5      N/A
#GLENWOOD       N/A         40  39  96  CALM    30.08F
#MANASTASH CYN  N/A         45  39  79  CALM    30.06S
#NELSON         N/A         52  46  80  CALM    30.10S
#NELSON 3SW     N/A         49  44  83  CALM    30.29S
#PEOH POINT     N/A         45  41  86  S7      N/A
#RONALD 2NW     N/A         48  44  86  N1      30.00S
#TROUT LAKE 1NE N/A         41  40  96  CALM    30.10R
$$

WAZ521-251310-
SIMCOE HIGHLANDS

CITY            SKY/WX      TMP DP  RH  WIND    PRES   REMARKS
#BICKLETON HS   N/A         46  37  71  CALM    30.12F
#SATUS PASS DOT N/A         42  38  86  CALM    N/A
#CENTERVILLE 1SWN/A         44  40  86  CALM    30.06R
#GOLDENDALE 1NE N/A         44  42  93  N3      N/A
#GOLDENDALE 1S  N/A         42  40  93  CALM    30.09R
#GOLDENDALE 5WNWN/A         43  40  89  CALM    30.07S
#GOODNOE HILLS  N/A         52  47  83  NW8     30.03S
$$

WAZ026-251310-
KITTITAS VALLEY

CITY            SKY/WX      TMP DP  RH  WIND    PRES   REMARKS
ELLENSBURG AP   CLEAR       56  45  66  NW16    30.09R
6HR MIN TEMP:   55; 6HR MAX TEMP:   58;

#ELLENSBURG CWU N/A         54  46  74  NW9     30.01S
#ELLENSBURG 3NE N/A         53  46  77  N6      30.09R
#ELLENSBURG 1E  N/A         54  43  66  CALM    N/A
#KITTITAS 3S    N/A         49  44  83  CALM    30.04S
#RYEGRASS DOT   N/A         49  45  86  W14     N/A    WCI 44
#THORP 6N       N/A         49  45  86  NW17G26 30.06F WCI 43
$$

WAZ027-251310-
YAKIMA VALLEY

CITY            SKY/WX      TMP DP  RH  WIND    PRES   REMARKS
YAKIMA AIRPORT  CLEAR       46  41  83  W3      30.10R
6HR MIN TEMP:   46; 6HR MAX TEMP:   62;

YAKIMA-VAGABOND CLEAR       50  41  71  E5      30.10S
#COWICHE 1N     N/A         54  43  66  W8      30.21S
#DONALD 2NE     N/A         67  43  42  SW1     30.30S
#GRANDVIEW      N/A         51  44  77  CALM    30.08S
#MABTON         N/A         53  47  80  CALM    30.09S
#MOXEE 2E       N/A         52  41  66  W2      30.03S
#NACHES 2SW     N/A         55  46  72  W12     30.09F
#PARKER DOT     N/A         59  44  57  S7      N/A
#SELAH 8E       N/A         48  39  71  SE3     N/A
#TERRACE HTS    N/A         55  43  64  CALM    30.02S
#TOPPENISH      N/A         57  46  67  CALM    29.98S
#I82 S UMTANUM RN/A         51  40  66  E5      N/A
#UNION GAP DOT  N/A         57  44  62  CALM    N/A
#WAPATO 4NE     N/A         67  43  42  SW1     30.30S
#W YAKIMA       N/A         56  44  64  W1      30.05S
#WHITE SWAN 5E  N/A         46  42  86  CALM    30.07S
#ZILLAH DOT     N/A         53  46  77  CALM    N/A
$$

WAZ028-251310-
LOWER COLUMBIA BASIN...WASHINGTON

CITY            SKY/WX      TMP DP  RH  WIND    PRES   REMARKS
PASCO           CLEAR       56  50  80  CALM    30.09S
6HR MIN TEMP:   56; 6HR MAX TEMP:   67;

PROSSER AWOS    N/A         50  46  86  N1      30.12S
RICHLAND AWOS   CLEAR       55  48  77  CALM    30.08F
#BASIN CITY 5SW N/A         57  50  77  CALM    30.08S
#BENTON CITY    N/A         53  48  83  CALM    29.98S
#CONNELL 5N     N/A         48  44  86  CALM    30.06S
#CONNELL 5NW    N/A         51  27  39  CALM    30.03S
#ELTOPIA        N/A         52  48  86  CALM    30.04R
#ELTOPIA 6NW    N/A         54  50  86  S3      29.05S
#KENNEWICK 3S   N/A         56  50  80  S3      30.07S
#PASCO-BROADMOORN/A         56  51  83  CALM    29.98S
#PATERSON       N/A         56  51  83  SW1     30.07R
#PROSSER DOT    N/A         51  48  89  N1      N/A
#PROSSER        N/A         56  44  64  E2      30.06S
#SAGEMOOR 2W    N/A         55  50  83  CALM    29.92S
#TOUCHET 2S     N/A         59  49  69  SW5     30.05S
$$

WAZ029-251310-
FOOTHILLS OF THE BLUES...WASHINGTON

CITY            SKY/WX      TMP DP  RH  WIND    PRES   REMARKS
WALLA WALLA AP  CLEAR       57  48  72  SE5     30.11F
6HR MIN TEMP:   57; 6HR MAX TEMP:   63;

#COLLEGE PLACE  N/A         58  46  64  S1      30.10S
#DAYTON SCHOOL  N/A         51  42  71  E5      30.09S
#DELANEY DOT    N/A         59  48  67  E5      N/A
#LOWDEN 2SE     N/A         49  46  89  E1      30.06S
#PLEASANT VIEW 1N/A         50  47  89  S7      30.09F
#PRESCOTT       N/A         51  47  86  CALM    30.07S
#SUDBURY        N/A         48  N/A N/A CALM    N/A
#WHITMAN COLLEGEN/A         57  48  72  SE1     30.12F
#WAITSBURG 8N   N/A         51  42  71  CALM    29.94R
#WALLA WALLA 5E N/A         63  41  44  S15     N/A
#WALLA WALLA U  N/A         57  49  75  CALM    30.07F
#WHITMAN MISSIONN/A         52  48  86  CALM    30.09F
$$

WAZ030-251310-
BLUE MOUNTAINS...WASHINGTON

CITY            SKY/WX      TMP DP  RH  WIND    PRES   REMARKS
$$

ORZ009-041-WAZ024-251310-
COLUMBIA RIVER GORGE

CITY            SKY/WX      TMP DP  RH  WIND    PRES   REMARKS
HOOD RIVER AP   CLEAR       50  46  86  S5      30.12F
THE DALLES AP   CLEAR       54  48  80  CALM    30.10F
6HR MIN TEMP:   52; 6HR MAX TEMP:   64;

#ARLINGTON AIRPON/A         53  48  83  SW5     25.03
#ARLINGTON HS   N/A         56  49  77  N3      30.00S
#CELILO DOT     N/A         58  47  67  S1      N/A
#MARYHILL       N/A         56  48  74  CALM    N/A
#MOSIER 1S      N/A         53  47  80  CALM    30.18S
#MURDOCK        N/A         60  55  84  W12     30.12S
#RUFUS DOT      N/A         N/A N/A N/A E5      N/A

$$

ORZ510-251310-
NORTH CENTRAL OREGON

CITY            SKY/WX      TMP DP  RH  WIND    PRES   REMARKS
#CHENOWITH 1W   N/A         52  48  86  W17     N/A
#COW CYN RST AREN/A         50  44  80  SW1     N/A
#DUFUR 9E       N/A         52  45  77  S2      30.13S
#GRASS VALLEY 1SN/A         44  41  89  CALM    30.12R
#KENT DOT       N/A         45  38  76  S1      N/A
#MAUPIN SCHOOL  N/A         51  46  83  CALM    30.15S
#MORO SCHOOL    N/A         44  42  93  S2      30.13S
#SHANIKO 5WSW   N/A         47  39  74  E7      N/A
#SHANIKO 4NW    N/A         47  43  86  SE7     30.14S
#TYGH VALLEY 2NEN/A         47  44  89  CALM    30.09S
#WAPANITIA AIRPON/A         47  44  89  CALM    30.10S
#WASCO DOT      N/A         49  46  89  CALM    N/A
#WASCO 5NE      N/A         50  46  86  N3      30.08S
$$

ORZ511-251310-
CENTRAL OREGON

CITY            SKY/WX      TMP DP  RH  WIND    PRES   REMARKS
BEND AIRPORT    CLEAR       41  39  93  S3      30.17R
MADRAS AIRPORT  CLEAR       39  39  100 S5      30.16S
REDMOND AIRPORT CLEAR       40  37  89  S3      30.15S
6HR MIN TEMP:   40; 6HR MAX TEMP:   53;

#BEND 6E        N/A         42  36  79  CALM    30.03S
#BEND 1SW       N/A         39  36  89  SW1     N/A
#BEND-AWBREY    N/A         47  42  83  N2      30.07S
#BEND-KIM LN    N/A         46  41  83  S1      30.12F
#CROOKED RVR RANN/A         43  40  89  CALM    30.09R
#CULVER         N/A         45  40  82  CALM    30.11S
#LAKE BILLY CHINN/A         46  42  86  CALM    30.18S
#POWELL BUTTE 3EN/A         39  37  92  E1      N/A
#POWELL BUTTE   N/A         44  38  79  S1      29.78S
#PRINEVILLE 3N  N/A         41  39  93  CALM    30.06S


ORZ509-251310-
EAST SLOPES OF OREGON CASCADES

CITY            SKY/WX      TMP DP  RH  WIND    PRES   REMARKS
#BLUE BOX PASS  N/A         42  -7  12  SW1     N/A
#BLACK BUTTE RNCN/A         39  37  92  CALM    30.10R
#CAMP SHERMAN   N/A         35  33  92  CALM    30.14R
#LA PINE DOT    N/A         35  33  92  CALM    N/A
#LA PINE 4NW    N/A         33  29  85  CALM    30.13R
#LAVA BUTTE DOT N/A         37  35  92  CALM    N/A
#MT BACHELOR-LOWN/A         41  N/A N/A MISG    N/A
#MT BACHELOR-MIDN/A         46  20  35  CALM    N/A
#SISTERS AIRPOR N/A         37  37  100 CALM    30.14S
#SISTERS ODOT   N/A         36  N/A N/A CALM    N/A
#SISTERS 3N     N/A         36  32  85  CALM    30.19R
#SUNRIVER       N/A         40  37  89  CALM    29.97R
#SUNRIVER AP    N/A         36  34  92  CALM    30.05R
#SUTTLE LK DOT  N/A         36  36  100 W12     N/A    WCI 28
#TUMALO 3W      N/A         49  41  74  CALM    29.97S
#WANOGA BUTTE D N/A         47  39  74  W1      N/A

$$

ORZ044-251310-
LOWER COLUMBIA BASIN...OREGON

CITY            SKY/WX      TMP DP  RH  WIND    PRES   REMARKS
HERMISTON       CLEAR       48  45  89  SE5     30.10S
6HR MIN TEMP:   47; 6HR MAX TEMP:   62;

#BOARDMAN SCHOOLN/A         64  52  65  W2      30.09S
#BOARDMAN 3W    N/A         53  48  83  S2      29.79S
#BOARDMAN 8SW   N/A         52  48  86  SW6     30.08S
#IONE SCHOOL    N/A         51  40  66  CALM    30.10S
#IRRIGON 4NW    N/A         53  48  83  S3      N/A
#UMATILLA SCHOOLN/A         51  51  100 CALM    30.14F
#UMATILLA       N/A         54  45  71  CALM    30.07S
$$

ORZ507-251310-
NORTHERN FOOTHILLS OF THE BLUES

CITY            SKY/WX      TMP DP  RH  WIND    PRES   REMARKS
PENDLETON AIRPT CLEAR       49  45  86  E6      30.11S
6HR MIN TEMP:   48; 6HR MAX TEMP:   60;

#ADAMS 3WNW     N/A         45  43  93  CALM    30.09S
#ATHENA         N/A         44  41  89  CALM    30.10S
#HELIX SCHOOL   N/A         46  43  89  CALM    30.07S
#HELIX 3N       N/A         51  47  86  SW2     30.08S
#HOLDMAN 5SE    N/A         47  44  89  CALM    30.11S
#HOLDMAN 6E     N/A         44  42  93  CALM    29.89S
#M-F FERNDALE   N/A         55  46  72  CALM    30.09F
#M-F GROVE ELEM N/A         52  44  74  CALM    30.09F
#M-FREEWATER 5SEN/A         53  47  80  NE2     30.10F
#PDT AQUATIC CTRN/A         52  43  71  E1      30.06S
#PENDLETON DNTN N/A         51  40  66  CALM    30.07S
#PENDLETON 5NE  N/A         45  43  93  CALM    30.08F
#PDT SUNRIDGE   N/A         46  43  89  CALM    30.13S
#PENDLETON 7NW  N/A         47  41  79  CALM    30.03F
#PILOT ROCK     N/A         49  41  74  CALM    30.13S
#TUTUILLA       N/A         49  46  89  CALM    30.02S
#UMAPINE 2E     N/A         51  47  86  CALM    30.07S
#WESTON SCHOOL  N/A         52  45  77  W2      30.09S

$$

ORZ508-251310-
SOUTHERN FOOTHILLS OF THE BLUES

CITY            SKY/WX      TMP DP  RH  WIND    PRES   REMARKS
#AJAX           N/A         N/A N/A N/A CALM    30.14S
#CONDON SCHOOL  N/A         47  44  89  CALM    30.09S
#CONDON 5W      N/A         49  41  74  CALM    30.10F
#HEPPNER EOC    N/A         49  44  83  SE3     30.03S
#HEPPNER 4NE    N/A         48  43  83  CALM    30.07S
#LEXINGTON 2SE  N/A         48  43  83  CALM    30.07F
#MIKKALO        N/A         46  40  79  E2      30.11S
#OLEX 4N        N/A         50  44  80  SW3     30.09S
#RUGGS 5NE      N/A         46  44  93  E1      30.30S
#RUGGS 2SW      N/A         49  43  80  SW8     30.12F

$$

ORZ502-503-251310-
BLUE MOUNTAINS

CITY            SKY/WX      TMP DP  RH  WIND    PRES   REMARKS
MEACHAM         CLEAR       36  34  92  CALM    30.15S
6HR MIN TEMP:   36; 6HR MAX TEMP:   47;

#BATTLE MTN DOT N/A         42  42  100 S1      N/A
#HARDMAN 10S    N/A         42  40  93  CALM    30.17F
#HEPPNER 15SE   N/A         41  38  89  CALM    30.06S
#LADD CYN SMT   N/A         40  37  89  S1      N/A
#LADD CREEK ODOTN/A         45  41  86  S1      N/A
#LONG CREEK HS  N/A         42  42  100 CALM    30.09S
#PIKES PEAK     N/A         51  47  86  SW7     27.99S
#TROY SCHOOL    N/A         51  45  80  CALM    29.93S
#UKIAH          N/A         37  36  96  CALM    30.14F
#WESTON 4E      N/A         47  44  89  SE1     30.02S
$$

ORZ505-251310-
JOHN DAY BASIN

CITY            SKY/WX      TMP DP  RH  WIND    PRES   REMARKS
JOHN DAY        CLEAR       47  40  76  E9      30.15F
#JOHN DAY KJDY  N/A         47  41  79  CALM    30.07F
#MONUMENT HS    N/A         48  42  80  CALM    29.96S
#MT. VERNON 5SE N/A         45  41  86  CALM    30.11S
#WINLOCK        N/A         44  41  89  CALM    30.21F
$$

ORZ506-251310-
OCHOCO AND JOHN DAY HIGHLANDS

CITY            SKY/WX      TMP DP  RH  WIND    PRES   REMARKS
#BUCK CREEK DOT N/A         48  44  86  NE2     N/A
#HORSE RIDGE DO N/A         29  28  96  SW1     N/A
#KEYES SMT DOT  N/A         41  40  96  CALM    N/A
#PAULINA SCHOOL N/A         N/A N/A N/A CALM    30.12S
#PINE MTN OBS   N/A         50  25  37  NW1     N/A
#PRAIRIE CITY   N/A         37  34  89  CALM    30.28S
$$

ORZ049-251310-
GRANDE RONDE VALLEY

CITY            SKY/WX      TMP DP  RH  WIND    PRES   REMARKS
LA GRANDE       CLEAR       45  30  55  CALM    30.12S
#COVE           N/A         46  42  86  CALM    30.04R
#COVE SCHOOL    N/A         45  40  82  CALM    30.10S
#COVE 6NW       N/A         41  37  86  CALM    30.12R
#ELGIN 3N       N/A         41  38  89  CALM    29.86S
#ELGIN 1E       N/A         44  40  86  CALM    N/A
#IMBLER SCHOOL  N/A         56  43  62  CALM    30.09S
#ISLAND CITY 4N N/A         43  39  86  CALM    30.02S
#LADD CYN DOT   N/A         48  40  74  SE10    N/A
#UNION 1S       N/A         46  41  83  CALM    29.98S
$$

ORZ050-251310-
WALLOWA COUNTY

CITY            SKY/WX      TMP DP  RH  WIND    PRES   REMARKS
#ENTERPRISE AP  N/A         66  35  32  CALM    29.99S
#ENTERPRISE HS  N/A         40  36  85  CALM    30.15S
#IMNAHA SCHOOL  N/A         52  40  63  CALM    30.10S
#IMNAHA 10S     N/A         49  39  68  SW5     30.12S
#JOSEPH 3N      N/A         38  34  85  CALM    30.15F
#JOSEPH 3W      N/A         45  39  79  CALM    29.97F
#LOSTINE        N/A         40  37  89  CALM    29.88S
#MT HOWARD 8000 N/A         41  34  76  CALM    30.25F
#PROMISE 1S     N/A         43  41  93  CALM    30.18S
#SHEEP RDG 7000 N/A         45  30  55  CALM    30.11F
#WALLOWA SCHOOL N/A         40  38  92  CALM    31.00R



$$



USA.gov is the U.S. government's official web portal to all federal, state and local government web resources and services.